YZ-2 R/B, 41840

Orbit data source: Space-Track

YZ-2 R/B, 41840 is space debris originally from a launch on Thu, 03 Nov 2016 UTC launched from the Wenchang Satellite Launch Center (WSC). Debris objects in space refer to the collection of defunct objects orbiting the Earth. Examples of debris include non-operational satellites, rocket bodies, and fragments generated from explosions, collisions, or faulty payload assembly.

Loading next visibility...
YZ-2 R/B details
Identifier
41840, 2016-065C
Orbit
Active
Last TLE update14 hours ago
Origin
Flag of CNCNSA (CN / PRC)
ManufacturerCALT
MissionSpacecraft
Bus & MotorYZ-2, Unknown motor
Mass~2,000 kg wet, ~2,000 kg dry
Launch date (UTC)
2016-11-03 (8 years ago)
Launch vehicleUnknown
Launch site
Wenchang Satellite Launch Center (WSC)
Object type
Payload
Rocket body
Debris
Shape & HBRCyl, 4 m
Radar Cross Section17.609 m², Large (>1 m²)

Expand to show TLE details & history

TLE from 14 hours ago
0 YZ-2 R/B
1 41840U 16065C   24346.36330373 -.00000113  00000-0  00000-0 0  9998
2 41840   7.8866  72.4703 0478579 217.6162 138.7804  0.93473712 27682
Epoch: 2024-12-11T08:43Z
Definitive object data (Epoch: 2024-12-11T08:43:09.442Z)
Latitude-0.00001°
Longitude-139.04714°
Altitude39,447.417 km
Speed2.894 km/s
True Right ascension04h 49m 12s
True Declination0° 00' 00"
Sunlit
Object was in daylight at TLE epoch
Visualization TLE readout
Latitude-1.29372°
Longitude50.30727°
Altitude35,915.814 km
Speed3.135 km/s
Apparent Right ascension17h 03m 36s
Apparent Declination-7° 13' 44"
Sunlit
Object is in daylight
Visualization observer readout
Local Sidereal Time21:03:17
Azimuth244.171° WSW
Elevation17.493°
Doppler factor1
Orbital elements
Apogee altitude39,922.581 km
Perigee altitude35,693.276 km
Semi-major axis44,186.066 km
Eccentricity0.0478579
Inclination7.8866°
RAAN72.4703°
Arg. of periapsis217.6162°
True anomaly142.23619°
Mean anomaly138.7804°
Eccentric anomaly140.52369°
Mean motion0.23368 °/min
BSTARUnknown
Orbital period1540.59 mins
Loading maneuver chart data...
Loading historical data...
Loading historical data...
Loading historical data...
Loading historical data...
Loading historical data...
Loading historical data...
Loading historical data...
Other satellites on launch #65 in the year 2016 (2016-11-03 UTC)

YZ-2 R/B Visibility forecast

Observer location: undefined°, undefined

Span
Click to sort rows by Start time (UTC) header in descending order
Start Az.
Max El. time (UTC)
Max El. Az.
Max El.
End time (UTC)
End Az.
1045 mins2024-12-11 22:39:14.728Z244.157° WSW2024-12-11 22:39:14.728Z244.157° WSW16.723°2024-12-12 16:04:14.728Z264.717° W
|